Location: Coffia
(6.2888°N, 10.5757°W)
Time: 22:38:29
(UTC+00:00)

Daily predictions for brighter satellites

Satellite Brightness Start Highest point End
(mag) Time Altitude Azimuth Time Altitude Azimuth Time Altitude Azimuth
VEP-3 3.6 18:41:11 10° WNW 18:46:47 73° NNE 19:05:45 10° ESE
Cosmos 2112 Rocket 4.2 18:49:49 10° N 18:54:54 51° ENE 19:00:02 10° SSE
Cosmos 1680 Rocket 3.5 18:51:33 10° N 18:56:45 68° ENE 19:02:00 10° SSE
TSX-5 3.5 18:54:17 10° S 18:57:17 47° ESE 19:00:30 10° NNE
Cosmos 1603 4.1 18:54:07 10° N 18:59:17 38° ENE 19:04:26 10° SE
USA 215 3.3 18:53:50 10° SE 19:00:21 73° NE 19:06:52 10° NNW
NOAA 11 4.2 18:57:15 10° SSE 19:02:43 70° ENE 19:08:10 10° N
Ariane H10+ 1.2 19:02:28 10° WSW 19:03:58 32° S 19:05:27 12° ESE
NATO 3D Rocket 4.4 18:57:11 10° W 19:04:00 52° NNW 19:09:03 10° NE
FengYun 1-2 T 4.3 18:59:03 10° SSE 19:04:35 88° E 19:10:10 10° NNW
Aureole 2 Rocket 4.3 19:04:05 10° ESE 19:04:44 10° E 19:05:16 10° E
Cosmos 2151 Rocket 3.9 19:01:08 10° SSE 19:05:21 45° E 19:09:35 10° NNE
GP-B 4.2 19:04:00 10° N 19:08:17 50° W 19:12:34 10° SSW
Cosmos 1891 Rocket 4.4 19:02:48 10° S 19:09:03 80° E 19:15:10 10° N
COSMOS 2455 4.3 19:08:04 10° SE 19:11:14 15° ESE 19:13:33 12° E
Okean O Rocket 4.3 19:09:40 10° SSW 19:13:17 25° WSW 19:16:56 10° NW
MOS 1 Rocket 3.3 19:10:23 10° NNE 19:14:28 45° E 19:18:39 10° S
Meteor 1-15 Rocket 4.5 19:10:13 10° SSE 19:15:28 44° E 19:20:46 10° NNE
Cosmos 1805 4.4 19:13:41 10° SE 19:16:45 22° E 19:19:50 10° NE
SEDSat Delta rocket 3.5 19:16:28 10° NW 19:22:03 60° NNE 19:25:45 17° ESE
RESURS DK-1 4.1 19:20:35 10° SE 19:22:16 15° ESE 19:22:16 15° ESE
H-2A R/B 3.3 19:22:41 17° E 19:23:28 17° ENE 19:26:40 10° NE
SL-8 R/B 3.9 19:20:45 10° SW 19:25:33 73° NW 19:30:20 10° NE
CZ-2C R/B 3.5 19:20:49 10° NE 19:25:34 29° E 19:30:18 10° SSE
Cosmos 1939 Rocket 3.0 19:22:52 10° S 19:26:57 83° W 19:31:03 10° NNW
Cosmos 1975 Rocket 2.9 19:23:59 10° N 19:28:18 82° E 19:32:38 10° S
Meteor 1-21 4.2 19:25:11 10° N 19:30:47 88° E 19:36:26 10° S
GPS 2-15 Rocket1 4.5 19:27:28 10° SW 19:31:37 27° SSE 19:33:47 20° ESE
Milstar 3 4.0 19:26:19 10° SSW 19:32:02 27° SE 19:36:05 19° ESE
Cosmos 2278 Rocket 2.4 19:32:53 10° S 19:38:16 46° ESE 19:43:37 10° NNE
Centaur AC-119 4.1 19:35:03 10° W 19:40:19 24° NW 19:42:30 12° NNE
Cosmos 2034 Rocket 4.2 19:37:25 10° S 19:43:48 79° W 19:50:09 10° N
USA 234 3.2 19:40:49 10° NE 19:47:21 87° NW 19:53:55 10° SW
Okean 1 Rocket 2.9 19:44:36 10° S 19:49:01 69° E 19:53:27 10° N
Delta 168 2.7 19:44:30 10° WNW 19:49:30 73° NNE 19:50:22 51° E
Nadezhda 4 Rocket 4.4 19:44:03 10° NNE 19:49:35 35° E 19:53:29 18° SE
Cosmos 1707 2.5 19:47:24 10° N 19:51:13 83° E 19:55:03 10° S
Cosmos 1766 3.0 19:54:35 10° S 19:58:28 80° E 20:01:42 14° N
CSL-04 Debris 4.0 19:55:04 10° SSE 20:00:25 66° ENE 20:05:44 10° N
YAOGAN 1 2.8 19:56:36 10° S 20:00:53 68° WSW 20:05:10 10° NNW
CSL-04 Rocket 3.5 19:56:57 10° SSE 20:02:15 65° ENE 20:07:36 10° N
Cosmos 1634 Rocket 3.8 20:05:27 10° S 20:11:34 70° E 20:17:40 10° N
CZ-4 R/B 3.5 20:13:44 10° SSW 20:17:21 28° W 20:20:59 10° NW
SJ-11-01 4.3 20:20:09 61° SSW 20:20:52 76° WSW 20:25:34 10° NNW
Cosmos 1025 Rocket 3.6 20:18:17 10° NNW 20:22:35 57° W 20:23:29 46° SW
CZ-2C R/B 3.6 20:19:06 10° S 20:23:59 55° W 20:29:07 10° NNW
ARIANE 5 R/B 2.9 20:21:38 10° W 20:27:14 44° W 20:27:14 44° W
Sea Lan Dem Rocket 4.0 20:32:11 10° WSW 20:33:55 22° SW 20:33:55 22° SW
CZ-4C R/B 3.1 20:36:56 10° SW 20:40:14 35° W 20:40:14 35° W
Cosmos 1867 4.2 20:37:07 10° NNW 20:41:47 53° W 20:41:47 53° W
COSMOS 2455 3.8 20:51:08 10° SW 20:56:48 44° WNW 20:56:51 44° WNW
H-2A R/B 3.9 21:03:18 25° W 21:03:18 25° W 21:06:39 10° NW
